Greenville, AL

6:58 AM CDT on October 20, 2017 (GMT -0500)
Greenville Municipal

Weather History for KPRN - October, 2011

Change the Weather History Date:

Thursday, October 13, 2011

  Actual Average Record
Temperature  
Mean Temperature 69 °F -  
Max Temperature 77 °F 80 °F 93 °F (2017)
Min Temperature 61 °F 54 °F 38 °F (1977)
Cooling Degree Days 4    
Growing Degree Days 19 (Base 50)    
Moisture  
Dew Point 61 °F    
Average Humidity 80    
Maximum Humidity 97    
Minimum Humidity 52    
Precipitation  
Precipitation 0.06 in - - ()
Sea Level Pressure  
Sea Level Pressure 29.76 in    
Wind  
Wind Speed 5 mph (WSW)    
Max Wind Speed 14 mph    
Max Gust Speed 21 mph    
Visibility 10 miles    
Events Hail    
Averages and records for this station are not official NWS values.
T = Trace of Precipitation, MM = Missing Value Source: NWS Daily Summary

Daily Weather History Graph

Daily Weather History Graph

Search for Another Location

Airport or City:

Trip Planner

Search our weather history database for the weather conditions in past years. The results will help you decide how hot, cold, wet, or windy it might be!

Date:

Astronomy

Oct. 13, 2011 Rise Set
Actual Time 6:48 AM CDT 6:16 PM CDT
Civil Twilight 6:23 AM CDT 6:41 PM CDT
Nautical Twilight 5:55 AM CDT 7:09 PM CDT
Astronomical Twilight 5:27 AM CDT 7:37 PM CDT
Moon 7:02 PM CDT (10/13) 8:10 AM CDT (10/13)
Length of Visible Light 12h 17m
Length of Day
11h 28m
Full, 98% of the Moon is Illuminated
Oct 13
Full
Oct 19
Last Quarter
Oct 26
New
Nov 2
First Quarter
Nov 10
Full

Hourly Weather History & Observations

Time (CDT) Temp. Dew Point Humidity Pressure Visibility Wind Dir Wind Speed Gust Speed Precip Events Conditions
12:07 AM 63.0 °F 62.1 °F 97% 29.80 in 2.0 mi South 3.5 mph - N/A   Clear
12:16 AM 63.0 °F 62.1 °F 97% 29.80 in 10.0 mi South 3.5 mph - N/A   Clear
12:56 AM 63.0 °F 62.1 °F 97% 29.78 in 10.0 mi SSW 4.6 mph - N/A   Clear
1:56 AM 63.0 °F 62.1 °F 97% 29.77 in 10.0 mi SSW 4.6 mph - N/A   Clear
2:56 AM 64.0 °F 62.1 °F 93% 29.76 in 10.0 mi SSW 4.6 mph - N/A   Clear
3:56 AM 64.0 °F 62.1 °F 93% 29.75 in 10.0 mi SSW 5.8 mph - N/A   Clear
4:56 AM 62.1 °F 61.0 °F 96% 29.75 in 10.0 mi SSW 3.5 mph - N/A   Clear
5:56 AM 62.1 °F 60.1 °F 93% 29.75 in 10.0 mi SSW 4.6 mph - N/A   Clear
6:56 AM 61.0 °F 60.1 °F 97% 29.75 in 10.0 mi SSW 4.6 mph - N/A   Clear
7:52 AM 63.0 °F 61.0 °F 93% 29.77 in 10.0 mi WSW 3.5 mph - N/A   Scattered Clouds
7:56 AM 63.0 °F 61.0 °F 93% 29.76 in 10.0 mi WSW 5.8 mph - N/A   Mostly Cloudy
8:56 AM 64.9 °F 63.0 °F 93% 29.78 in 10.0 mi WSW 5.8 mph - N/A   Overcast
9:45 AM 66.9 °F 63.0 °F 87% 29.79 in 10.0 mi SW 4.6 mph - N/A   Overcast
9:56 AM 66.0 °F 63.0 °F 90% 29.78 in 10.0 mi SSW 4.6 mph - N/A   Overcast
10:48 AM 71.1 °F 63.0 °F 75% 29.77 in 10.0 mi SSW 5.8 mph - N/A   Scattered Clouds
10:56 AM 71.1 °F 63.0 °F 75% 29.75 in 10.0 mi South 5.8 mph - N/A   Partly Cloudy
11:56 AM 77.0 °F 64.0 °F 64% 29.73 in 10.0 mi West 4.6 mph - N/A   Partly Cloudy
12:00 PM - - N/A% - - North - - N/A Hail Hail
12:56 PM 77.0 °F 62.1 °F 60% 29.69 in 10.0 mi SW 9.2 mph 17.3 mph N/A   Partly Cloudy
1:56 PM 71.1 °F 62.1 °F 73% 29.69 in 10.0 mi NW 8.1 mph 20.7 mph 0.06 in   Mostly Cloudy
2:56 PM 77.0 °F 60.1 °F 56% 29.68 in 10.0 mi West 13.8 mph 18.4 mph 0.00 in   Clear
3:56 PM 75.9 °F 60.1 °F 58% 29.68 in 10.0 mi West 10.4 mph 18.4 mph N/A   Clear
4:56 PM 75.9 °F 57.0 °F 52% 29.69 in 10.0 mi WNW 11.5 mph - N/A   Clear
5:56 PM 73.0 °F 55.9 °F 55% 29.71 in 10.0 mi West 8.1 mph - N/A   Clear
6:56 PM 70.0 °F 57.0 °F 63% 29.73 in 10.0 mi WNW 4.6 mph - N/A   Clear
7:56 PM 69.1 °F 57.9 °F 68% 29.77 in 10.0 mi WNW 3.5 mph - N/A   Clear
8:56 PM 66.9 °F 57.9 °F 73% 29.79 in 10.0 mi WNW 4.6 mph - N/A   Clear
9:56 PM 66.0 °F 57.9 °F 75% 29.81 in 10.0 mi WNW 5.8 mph - N/A   Clear
10:56 PM 64.0 °F 57.0 °F 78% 29.81 in 10.0 mi WNW 4.6 mph - N/A   Clear
11:56 PM 61.0 °F 55.9 °F 83% 29.83 in 10.0 mi West 4.6 mph - N/A   Clear